Dewpoint
61 61 61 61 58 57 58 56 55 55 55 55 55 55 55 55 57 57 57 54 54 53 54 52 51 51 51 50 50 50 51 53 54 54 53 53 52 52 52 53 53 51 50 53 52 50 47 41 33 30 34 31
60 60 61 61 61 60 61 60 58 58 55 55 56 56 57 58 58 58 58 57 54 53 53 53 52 51 50 50 49 51 50 51 54 54 53 53 52 52 52 52 53 52 51 53 52 50 48 43 34 31 31 29
56 59 60 60 61 61 60 60 60 59 58 57 58 59 58 58 57 57 58 57 56 53 53 55 54 51 49 49 50 50 50 51 52 54 54 53 52 52 52 50 51 51 51 53 51 50 47 43 35 32 44 30
54 57 59 59 60 60 59 59 60 60 59 58 57 57 58 56 56 56 55 57 54 55 55 55 54 52 50 50 49 48 51 50 52 54 54 54 52 52 51 50 50 51 51 53 51 50 47 41 37 32 28 28
56 56 57 58 59 59 59 58 59 59 59 58 57 56 55 55 53 53 53 54 52 56 53 53 54 52 50 51 49 48 50 50 51 53 53 53 51 51 51 52 52 50 51 52 51 49 45 39 30 31 29 27
43 49 56 57 57 56 57 57 57 56 54 55 52 54 53 52 51 52 51 52 53 52 52 51 53 53 53 51 51 49 50 51 51 52 53 53 51 51 53 53 49 50 50 51 50 47 44 35 31 29 25 20
38 39 43 53 56 55 56 54 54 54 53 52 52 52 51 51 51 50 50 50 51 51 52 50 53 52 51 50 50 51 52 52 51 52 52 52 51 51 55 49 45 45 46 48 49 47 39 32 29 22 20 19
35 36 38 41 49 54 55 54 53 54 53 52 52 52 51 51 51 50 49 52 52 51 50 50 52 52 52 51 52 53 52 53 53 52 52 52 52 52 45 41 41 40 39 44 42 38 35 32 27 20 21 24
34 35 35 37 38 42 51 54 53 54 53 53 53 52 52 50 50 50 49 48 49 48 48 48 49 49 49 47 46 49 49 48 48 50 47 49 50 43 41 40 39 38 38 38 37 35 34 32 27 22 25 20
34 34 34 35 37 38 39 44 50 53 53 54 53 52 52 51 50 50 49 47 48 47 47 47 48 48 48 46 45 46 46 43 45 46 42 45 46 42 40 39 38 38 38 35 35 34 33 32 29 23 21 17
29 31 33 34 36 36 36 39 42 47 52 53 54 54 53 50 50 50 49 48 48 47 46 46 47 46 47 46 44 44 45 44 43 42 41 41 43 41 38 37 37 38 37 36 34 34 33 32 29 23 20 19
28 29 31 32 35 33 37 38 38 40 44 50 54 53 54 53 50 50 50 49 48 47 46 46 46 46 46 45 44 44 44 43 40 38 39 41 42 39 38 37 37 37 36 36 35 34 33 31 29 24 20 19
28 28 28 30 31 32 40 35 35 37 39 43 50 53 53 52 52 52 50 49 48 48 47 46 46 46 45 45 44 43 43 43 41 39 39 40 41 40 39 37 36 36 36 36 35 34 33 31 27 23 20 19
28 28 27 29 30 30 35 33 34 35 36 38 40 47 52 53 53 53 52 50 51 49 47 46 46 46 45 44 44 43 43 42 42 41 39 38 39 39 39 37 36 36 35 35 35 34 33 30 25 23 20 20
28 29 28 30 29 29 30 32 34 34 34 35 37 39 43 50 53 53 53 53 52 50 50 49 45 46 45 44 44 44 43 41 41 40 41 41 40 40 39 37 36 35 34 34 34 34 32 30 23 20 19 19
26 28 29 31 28 28 29 32 32 33 33 35 35 37 39 41 47 51 53 53 52 52 51 51 50 46 45 44 44 44 43 42 40 40 40 39 39 38 38 36 34 33 33 32 32 32 31 27 21 19 18 17
25 26 29 29 29 29 32 29 30 31 32 33 34 36 36 38 40 44 50 52 52 52 52 51 50 48 46 45 44 43 43 42 40 39 38 38 38 38 37 35 34 32 31 30 29 28 27 22 19 17 16 17
24 24 27 32 29 30 30 28 28 30 30 32 34 34 36 36 37 39 41 44 48 51 51 51 50 49 48 47 44 44 42 42 40 39 38 39 38 39 37 35 34 31 29 28 25 24 22 19 16 15 15 16
22 24 25 27 28 29 30 29 28 28 28 30 32 33 34 35 36 36 38 41 43 46 50 50 50 50 49 47 45 43 42 41 40 40 39 39 38 37 36 35 34 31 29 27 24 21 19 16 14 15 14 15
22 21 22 27 32 29 29 30 29 28 27 29 31 31 31 32 34 35 36 38 40 40 44 49 50 50 50 45 43 42 40 40 40 40 39 38 38 37 35 34 32 31 29 27 25 21 19 15 18 12 14 14
22 21 22 24 27 27 29 29 28 28 28 28 29 29 29 31 34 36 36 36 36 36 37 41 46 49 49 46 42 41 41 41 40 39 39 37 37 37 36 34 33 30 30 27 26 22 19 16 17 11 12 13
22 22 23 24 25 29 25 26 27 27 28 28 28 29 29 32 35 35 35 35 35 35 35 36 38 42 48 45 41 40 39 41 40 39 39 37 37 37 36 34 33 30 29 27 25 22 18 17 15 12 10 13
24 25 24 24 23 23 23 25 25 26 25 27 28 28 29 32 35 34 33 34 35 35 35 34 35 37 40 44 40 40 39 39 39 38 37 37 35 36 36 35 33 31 29 29 26 23 18 16 14 12 10 16
22 23 24 24 23 23 24 24 26 26 26 26 27 29 29 30 31 32 32 32 33 34 34 35 35 35 37 37 38 39 39 39 38 38 36 36 35 34 34 34 34 31 28 27 21 23 16 13 12 11 14 13
19 21 22 23 22 22 22 23 24 25 26 26 26 27 27 27 27 29 30 32 33 33 34 35 36 36 37 36 36 37 39 39 38 38 37 36 34 33 32 31 29 27 25 22 17 16 14 11 11 16 14 11
17 20 20 18 19 19 20 21 24 25 25 25 27 27 26 26 26 28 29 30 33 34 33 33 34 36 38 36 36 35 36 38 38 37 36 36 36 33 32 31 26 22 23 20 23 16 9 9 9 13 16 11
17 17 18 18 18 18 18 20 22 23 25 27 27 25 26 26 26 28 30 32 35 35 34 34 34 34 37 35 36 35 35 35 35 36 36 35 35 35 30 30 25 20 25 23 22 15 11 8 8 10 14 12
19 20 22 23 22 21 19 17 23 23 25 26 25 25 26 26 28 31 34 35 35 35 35 35 35 34 35 35 35 34 35 35 36 35 35 36 35 34 29 26 22 19 22 24 15 12 14 9 8 7 7 9
20 22 21 21 19 19 19 18 18 18 21 23 26 26 25 25 27 30 31 33 34 35 36 35 35 35 35 34 34 35 34 35 35 36 35 35 35 34 33 28 25 19 17 19 18 19 10 8 6 8 8 7
22 22 21 19 18 17 17 17 18 18 18 18 19 21 24 25 26 26 26 29 34 35 35 35 35 35 35 34 34 35 34 34 34 35 35 35 35 35 34 30 25 18 17 15 16 18 14 13 13 9 8 7
23 21 20 20 20 18 17 18 19 17 18 18 17 21 21 23 24 25 26 26 26 29 32 34 35 35 34 34 34 35 34 34 34 34 34 35 35 34 36 32 28 22 15 14 13 16 13 14 18 11 8 9